Weather History for KAQW - March, 2013

Change the Weather History Date:

Saturday, March 2, 2013

  Actual Average Record
Temperature  
Mean Temperature 31 °F -  
Max Temperature 34 °F 35 °F 57 °F (2004)
Min Temperature 28 °F 18 °F 10 °F (2008)
Degree Days  
Heating Degree Days 34    
Moisture  
Dew Point 21 °F    
Average Humidity 68    
Maximum Humidity 72    
Minimum Humidity 59    
Precipitation  
Precipitation 0.00 in - - ()
Sea Level Pressure  
Sea Level Pressure 29.73 in    
Wind  
Wind Speed 6 mph (West)    
Max Wind Speed 12 mph    
Max Gust Speed 20 mph    
Visibility 10 miles    
Events      
Averages and records for this station are not official NWS values.
T = Trace of Precipitation, MM = Missing Value Source: NWS Daily Summary

Daily Weather History Graph

Daily Weather History Graph

Search for Another Location

Airport or City:

Trip Planner

Search our weather history database for the weather conditions in past years. The results will help you decide how hot, cold, wet, or windy it might be!

Date:

Astronomy

Mar. 02, 2013 Rise Set
Actual Time 6:26 AM EST 5:43 PM EST
Civil Twilight 5:58 AM EST 6:12 PM EST
Nautical Twilight 5:25 AM EST 6:44 PM EST
Astronomical Twilight 4:52 AM EST 7:17 PM EST
Moon 11:29 PM EST (3/2) 8:44 AM EST (3/2)
Length of Visible Light 12h 14m
Length of Day
11h 17m
Waning Gibbous, 74% of the Moon is Illuminated
Mar 2
Waning Gibbous
Mar 4
Last Quarter
Mar 11
New
Mar 19
First Quarter
Mar 27
Full

Hourly Weather History & Observations

Time (EST) Temp. Windchill Dew Point Humidity Pressure Visibility Wind Dir Wind Speed Gust Speed Precip Events Conditions
12:52 AM 30.9 °F 25.2 °F 21.9 °F 69% 29.75 in 10.0 mi WNW 5.8 mph - N/A   Overcast
1:52 AM 30.0 °F 23.2 °F 21.9 °F 72% 29.74 in 10.0 mi West 6.9 mph - N/A   Overcast
2:52 AM 30.0 °F 23.2 °F 21.9 °F 72% 29.74 in 10.0 mi West 6.9 mph - N/A   Overcast
3:52 AM 30.0 °F 26.5 °F 21.0 °F 69% 29.74 in 10.0 mi West 3.5 mph - N/A   Overcast
4:52 AM 30.0 °F 24.1 °F 21.9 °F 72% 29.74 in 10.0 mi West 5.8 mph - N/A   Overcast
5:52 AM 30.0 °F 23.2 °F 21.0 °F 69% 29.73 in 10.0 mi West 6.9 mph - N/A   Overcast
6:52 AM 30.0 °F 20.5 °F 19.9 °F 66% 29.74 in 10.0 mi West 11.5 mph 19.6 mph N/A   Overcast
7:52 AM 30.0 °F 22.4 °F 19.9 °F 66% 29.75 in 10.0 mi WSW 8.1 mph - N/A   Overcast
8:52 AM 30.0 °F 26.5 °F 21.0 °F 69% 29.75 in 9.0 mi Variable 3.5 mph - N/A   Overcast
9:52 AM 30.0 °F 26.5 °F 21.0 °F 69% 29.75 in 10.0 mi Variable 3.5 mph - 0.00 in   Overcast
10:52 AM 30.9 °F 27.5 °F 21.0 °F 67% 29.75 in 10.0 mi Variable 3.5 mph - N/A   Overcast
11:52 AM 30.9 °F 25.2 °F 21.0 °F 67% 29.74 in 10.0 mi West 5.8 mph - 0.00 in   Overcast
12:52 PM 32.0 °F 27.5 °F 21.0 °F 64% 29.71 in 10.0 mi Variable 4.6 mph - N/A   Overcast
1:52 PM 34.0 °F 27.2 °F 21.0 °F 59% 29.70 in 10.0 mi WNW 8.1 mph - N/A   Overcast
2:52 PM 33.1 °F 25.5 °F 21.0 °F 61% 29.70 in 10.0 mi West 9.2 mph - N/A   Overcast
3:52 PM 33.1 °F 26.1 °F 21.9 °F 64% 29.70 in 10.0 mi WNW 8.1 mph - N/A   Overcast
4:04 PM 33.8 °F 27.7 °F 21.2 °F 60% 29.67 in 10.0 mi West 6.9 mph 17.3 mph N/A   Overcast
4:52 PM 32.0 °F 24.2 °F 23.0 °F 69% 29.71 in 6.0 mi West 9.2 mph - N/A   Haze
5:52 PM 30.9 °F 24.3 °F 23.0 °F 72% 29.72 in 10.0 mi West 6.9 mph - 0.00 in   Overcast
6:32 PM 30.2 °F 25.4 °F 21.2 °F 69% 29.71 in 10.0 mi West 4.6 mph - N/A   Overcast
6:52 PM 30.9 °F 27.5 °F 21.9 °F 69% 29.73 in 10.0 mi WNW 3.5 mph - N/A   Overcast
7:52 PM 30.0 °F 23.2 °F 21.9 °F 72% 29.73 in 10.0 mi West 6.9 mph - N/A   Overcast
8:13 PM 30.2 °F 22.6 °F 21.2 °F 69% 29.71 in 10.0 mi West 8.1 mph - N/A   Overcast
8:52 PM 30.0 °F 22.4 °F 19.9 °F 66% 29.75 in 10.0 mi West 8.1 mph - N/A   Overcast
9:52 PM 28.9 °F 22.8 °F 19.9 °F 69% 29.74 in 10.0 mi West 5.8 mph - N/A   Overcast
10:12 PM 28.4 °F 23.3 °F 19.4 °F 69% 29.71 in 10.0 mi Variable 4.6 mph - N/A   Overcast
10:52 PM 28.0 °F 20.8 °F 19.9 °F 72% 29.73 in 10.0 mi West 6.9 mph - N/A   Overcast
11:52 PM 28.0 °F 21.7 °F 19.9 °F 72% 29.72 in 10.0 mi WNW 5.8 mph - N/A   Overcast